Regional Weather Roundup
Issued by NWS

Home | Current Version | Previous Version | Text Only | Print | Product List | Glossary On
Versions: 1 2 3 4 5 6 7 8 9 10 11 12 13 14 15 16 17 18 19 20 21 22 23 24 25 26 27 28 29 30 31 32 33 34 35 36 37 38 39 40 41 42 43 44 45 46
000
ASUS45 KPSR 290710
RWRAZ

ARIZONA REGIONAL HOURLY WEATHER ROUNDUP
NATIONAL WEATHER SERVICE TUCSON AZ
1200 AM MST THU JUN 29 2017

NOTE: FAIR INDICATES FEW OR NO CLOUDS BELOW 12,000 FEET WITH NO
SIGNIFICANT WEATHER AND/OR OBSTRUCTIONS TO VISIBILITY.

AZZ001>003-036-290800-
NORTHWEST ARIZONA

CITY           SKY/WX    TMP DP  RH WIND       PRES   REMARKS
BULLHEAD CITY  CLEAR     93  27   9 S5        29.66S
KINGMAN        CLEAR     70  19  14 SE5       29.89S
$$

AZZ004>008-015-016-018-290800-
NORTH CENTRAL ARIZONA

CITY           SKY/WX    TMP DP  RH WIND       PRES   REMARKS
GRAND CANYON   CLEAR     47  16  29 CALM      30.15R
PRESCOTT       CLEAR     71  34  25 S7        30.04S
FLAGSTAFF      CLEAR     59  23  25 W6        30.19R
PAYSON         SUNNY     73  30  20 CALM      30.10R
PAGE           PTCLDY    82  13   7 CALM      29.88S
$$

AZZ009>014-017-290800-
NORTHEAST ARIZONA

CITY           SKY/WX    TMP DP  RH WIND       PRES   REMARKS
WINSLOW        CLEAR     71  30  21 SW13      30.02S
SAINT JOHNS    CLEAR     68  25  19 SW12      30.09S
WINDOW ROCK    CLEAR     64  25  22 SW7       30.15R
SHOW LOW       CLEAR     63  25  23 S10       30.16F
$$

AZZ023-290800-
GREATER PHOENIX AREA

CITY           SKY/WX    TMP DP  RH WIND       PRES   REMARKS
PHOENIX        CLEAR     95  42  16 W8        29.72S
BUCKEYE        SUNNY     82  50  32 SW3       29.75S
LUKE AFB       CLEAR     91  46  21 SW17      29.72S
DEER VALLEY    CLEAR     92  42  17 SW12      29.75S
SCOTTSDALE     CLEAR     93  42  17 CALM      29.77S
$$

AZZ027-028-290800-
SOUTHWEST MARICOPA COUNTY AND PINAL COUNTY

CITY           SKY/WX    TMP DP  RH WIND       PRES   REMARKS
CASA GRANDE    CLEAR     88  33  14 S10       29.79R
$$

AZZ503-504-507>509-290800-
SOUTHEAST ARIZONA

CITY           SKY/WX    TMP DP  RH WIND       PRES   REMARKS
TUCSON         CLEAR     90  36  14 S6        29.92R
DAVIS-MONTHAN  CLEAR     86  40  19 CALM      29.91R
NOGALES        CLEAR     81  48  31 SW7       30.03S
SIERRA VISTA   CLEAR     80  47  31 SW20      30.07F
DOUGLAS        CLEAR     77  43  29 CALM      30.03R
SAFFORD        CLEAR     82  39  21 NW9       29.89R
$$

AZZ020-021-025-026-031-290800-
SOUTHWEST ARIZONA

CITY           SKY/WX    TMP DP  RH WIND       PRES   REMARKS
YUMA           CLEAR     84  66  54 S9        29.71S
$$

CAZ031-033-041-043-047-048-061-290800-
SOUTHERN CALIFORNIA

CITY           SKY/WX    TMP DP  RH WIND       PRES   REMARKS
DOWNTOWN L.A.  CLOUDY    67  60  78 CALM      29.90S
L.A. AIRPORT   CLOUDY    65  60  84 VRB5      29.91S
SAN DIEGO      CLOUDY    63  57  81 CALM      29.94S
BURBANK        CLEAR     64  57  78 SE9       29.90S
ONTARIO        CLEAR     63  56  78 SW6       29.91S
RIVERSIDE      CLEAR     63  57  81 W3        29.91S
PALM SPRINGS   CLEAR     88  38  17 W5        29.71R
EL CENTRO NAS  CLEAR     85  27  12 W17       29.70S
IMPERIAL       CLEAR     79  38  22 W9        29.68S
BLYTHE         CLEAR     86  31  13 S18       29.69R
NEEDLES        CLEAR     98  16   5 VRB6      29.67R
$$

NVZ020-UTZ003-290800-
SOUTHERN NEVADA-UTAH

CITY           SKY/WX    TMP DP  RH WIND       PRES   REMARKS
LAS VEGAS      CLEAR     93  20   7 S10       29.73R
SALT LAKE CITY CLEAR     73  48  41 NW6       29.91R
$$

NMZ009-TXZ055-290800-
NEW MEXICO-WEST TEXAS

CITY           SKY/WX    TMP DP  RH WIND       PRES   REMARKS
ALBUQUERQUE    CLEAR     78  15   9 VRB3      29.98S
EL PASO        PTCLDY    90  29  11 W10       29.91S
$$


........................KEY........................
SKY/WX - SKY CONDITION/WEATHER
TMP    - TEMPERATURE IN FAHRENHEIT
DP     - DEWPOINT IN FAHRENHEIT
RH     - RELATIVE HUMIDITY IN PERCENT
WIND   - DIRECTION AND SPEED IN MILES PER HOUR (MPH)
VRB    - VARIABLE WIND DIRECTION
PRES   - MEAN SEA LEVEL PRESSURE IN INCHES OF MERCURY
         F - FALLING PRESSURE   R - RISING PRESSURE
         S - STEADY PRESSURE
VSB    - VISIBILITY IN MILES
HX     - HEAT INDEX IN FAHRENHEIT
WCI    - WIND CHILL INDEX IN FAHRENHEIT
TC     - TEMPERATURE IN CELSIUS WHICH IS ALSO KNOWN AS
         TEMPERATURE IN CENTIGRADE
AFB    - AIR FORCE BASE
         LUKE AFB IS LUKE AIR FORCE BASE
         DAVIS-MONTHAN IS DAVIS-MONTHAN AIR FORCE BASE
NAS    - NAVAL AIR STATION
         EL CENTRO NAS IS EL CENTRO NAVAL AIR STATION
N/A    - NOT AVAILABLE





USA.gov is the U.S. government's official web portal to all federal, state and local government web resources and services.